Weather in Proba

Russia / Saint-Petersburg and Leningrad Oblast     60°05′55″N   30°46′54″E
temp.,
°C
wind,
m/s
gust,
m/s
humid.,
%
clouds,
%
prec.,
mm/h
press.,
hPa
HPBL,
m
14 june, mon
mon1400:00+12nnw2796100 0.0 1010287
03:00+13wnw269040 0.0 1012255
06:00+13nw1583100 0.0 1013164
09:00+18w245395 0.0 1015944
12:00+20w4540100 0.0 10161708
15:00+20w4536100 0.0 10161360
18:00+17w4640100 0.0 1016625
21:00+13wsw1159100 0.0 101414
15 june, tue
tue1500:00+11s246491 0.0 101466
03:00+10s397921 0.0 1012172
06:00+13ssw41366100 0.0 1010426
09:00+18ssw61351100 0.0 1008892
12:00+18wsw696692 0.2 10081129
15:00+18w5863100 0.4 10091491
18:00+17w5956100 0.1 1009988
21:00+13w41073100 0.1 1010467
16 june, wed
wed1600:00+10wsw310901 0.0 1011269
03:00+9wsw26970 0.0 1013125
06:00+11w210750 0.0 1015325
09:00+17wnw484712 0.0 10161146
12:00+19w6104375 0.0 10171451
15:00+19w61142100 0.0 10181366
18:00+19w510485 0.0 10171224
21:00+15w311595 0.0 1018375
17 june, thu
thu1700:00+11wsw310715 0.0 1019215
03:00+10wsw310765 0.0 1020211
06:00+13wsw3107358 0.0 1021364
09:00+18w47545 0.0 1022853
12:00+21w45395 0.0 10231248
15:00+23w4535100 0.0 10231331
18:00+21wnw3439100 0.0 1023546
21:00+16wsw22595 0.0 102318
18 june, fri
fri1800:00+13ssw22650 0.0 102414
03:00+12sw237528 0.0 102450
06:00+14wsw257134 0.0 1024132
09:00+20wsw3744100 0.0 1024558
12:00+24wsw463227 0.0 10231339
15:00+26wsw47340 0.0 10221869
18:00+25wnw35390 0.0 1021816
21:00+20wsw11630 0.0 102111